Poplar Bluff, MO

3:11 PM CDT on July 15, 2019 (GMT -0500)
Poplar Bluff Municipal

Weather History for KPOF - May, 2019

Change the Weather History Date:

Wednesday, May 29, 2019

  Actual Average Record
Temperature  
Mean Temperature 75 °F -  
Max Temperature 84 °F 82 °F 98 °F (1926)
Min Temperature 66 °F 61 °F 44 °F (1964)
Cooling Degree Days 10    
Growing Degree Days 25 (Base 50)    
Moisture  
Dew Point 70 °F    
Average Humidity 90    
Maximum Humidity 100    
Minimum Humidity 65    
Precipitation  
Precipitation 0.81 in - - ()
Sea Level Pressure  
Sea Level Pressure 29.79 in    
Wind  
Wind Speed 9 mph (SW)    
Max Wind Speed 29 mph    
Max Gust Speed 44 mph    
Visibility 8 miles    
Events Rain , Thunderstorm    
Averages and records for this station are not official NWS values.
T = Trace of Precipitation, MM = Missing Value Source: NWS Daily Summary

Daily Weather History Graph

Daily Weather History Graph

Search for Another Location

Airport or City:

Astronomy

May. 29, 2019 Rise Set
Actual Time 5:45 AM CDT 8:12 PM CDT
Civil Twilight 5:15 AM CDT 8:42 PM CDT
Nautical Twilight 4:38 AM CDT 9:19 PM CDT
Astronomical Twilight 3:57 AM CDT 10:00 PM CDT
Moon 3:14 AM CDT (5/29) 3:29 PM CDT (5/29)
Length of Visible Light 15h 27m
Length of Day
14h 27m
Waning Crescent, 23% of the Moon is Illuminated
May 29
Waning Crescent
Jun 3
New
Jun 10
First Quarter
Jun 17
Full
Jun 25
Last Quarter

Hourly Weather History & Observations

Time (CDT) Temp. Heat Index Dew Point Humidity Pressure Visibility Wind Dir Wind Speed Gust Speed Precip Events Conditions
12:53 AM 75.9 °F - 71.1 °F 85% 29.76 in 10.0 mi South 5.8 mph - N/A   Clear
1:48 AM 75.2 °F - 71.6 °F 89% 29.77 in 7.0 mi SSW 5.8 mph - 0.00 in Rain , Thunderstorm Light Rain
1:53 AM 75.9 °F - 72.0 °F 87% 29.75 in 7.0 mi South 8.1 mph - 0.00 in Rain , Thunderstorm Light Rain
2:03 AM 75.0 °F - 72.0 °F 90% 29.76 in 10.0 mi South 6.9 mph - 0.00 in   Mostly Cloudy
2:53 AM 75.9 °F - 71.1 °F 85% 29.73 in 10.0 mi SSW 8.1 mph - 0.00 in   Clear
3:53 AM 75.9 °F - 72.0 °F 87% 29.73 in 10.0 mi South 10.4 mph - N/A   Clear
4:53 AM 77.0 °F - 72.0 °F 84% 29.73 in 10.0 mi SSW 9.2 mph - N/A   Clear
5:53 AM 77.0 °F - 73.0 °F 88% 29.75 in 10.0 mi SSW 9.2 mph - N/A   Mostly Cloudy
6:16 AM 77.0 °F - 73.0 °F 88% 29.76 in 10.0 mi SSW 10.4 mph - N/A   Scattered Clouds
6:53 AM 77.0 °F - 73.0 °F 88% 29.77 in 10.0 mi SW 10.4 mph - N/A   Mostly Cloudy
7:03 AM 77.0 °F - 73.0 °F 88% 29.79 in 10.0 mi SW 6.9 mph 18.4 mph 0.00 in Rain Light Rain
7:07 AM 77.0 °F - 73.9 °F 90% 29.78 in 10.0 mi SW 9.2 mph 18.4 mph 0.00 in Rain , Thunderstorm Light Rain
7:17 AM 75.9 °F - 73.9 °F 94% 29.79 in 8.0 mi SW 9.2 mph - 0.01 in Rain , Thunderstorm Light Rain
7:30 AM 72.0 °F - 68.0 °F 87% 29.85 in 4.0 mi West 20.7 mph 32.2 mph 0.05 in Rain , Thunderstorm Thunderstorms and Rain
7:35 AM 71.1 °F - 68.0 °F 90% 29.81 in 1.5 mi NW 16.1 mph 28.8 mph 0.08 in Rain , Thunderstorm Heavy Thunderstorms and Rain
7:42 AM 70.0 °F - 69.1 °F 97% 29.82 in 1.0 mi Variable 4.6 mph 24.2 mph 0.27 in Rain , Thunderstorm Heavy Thunderstorms and Rain
7:50 AM 69.8 °F - 69.8 °F 100% 29.82 in 3.0 mi SSW 4.6 mph - 0.28 in Rain , Thunderstorm Thunderstorms and Rain
7:53 AM 70.0 °F - 68.0 °F 93% 29.81 in 4.0 mi SSW 3.5 mph - 0.29 in Rain , Thunderstorm Light Thunderstorms and Rain
8:08 AM 70.0 °F - 68.0 °F 93% 29.81 in 6.0 mi Calm Calm - 0.01 in Rain , Thunderstorm Light Rain
8:22 AM 70.0 °F - 69.1 °F 97% 29.82 in 9.0 mi South 8.1 mph - 0.02 in Rain Light Rain
8:53 AM 70.0 °F - 69.1 °F 97% 29.76 in 8.0 mi SSE 11.5 mph - 0.06 in Rain Light Rain
9:53 AM 73.9 °F - 71.1 °F 91% 29.78 in 10.0 mi SW 6.9 mph - 0.00 in   Clear
10:53 AM 77.0 °F - 71.1 °F 82% 29.79 in 10.0 mi SSW 11.5 mph - N/A   Clear
11:53 AM 79.0 °F - 71.1 °F 77% 29.81 in 10.0 mi SSW 15.0 mph 23.0 mph N/A   Clear
12:53 PM 82.9 °F 87.5 °F 71.1 °F 67% 29.79 in 10.0 mi SW 13.8 mph - N/A   Clear
1:53 PM 84.9 °F 90.7 °F 72.0 °F 65% 29.77 in 10.0 mi WSW 11.5 mph 19.6 mph N/A   Clear
2:53 PM 82.9 °F 89.4 °F 73.9 °F 74% 29.76 in 10.0 mi SSW 9.2 mph - N/A   Mostly Cloudy
3:53 PM 82.9 °F 88.8 °F 73.0 °F 72% 29.75 in 10.0 mi SSW 9.2 mph - N/A   Clear
4:53 PM 82.0 °F 87.9 °F 73.9 °F 76% 29.74 in 10.0 mi SSW 6.9 mph - N/A   Clear
5:53 PM 80.1 °F 84.5 °F 73.9 °F 81% 29.74 in 10.0 mi West 6.9 mph - N/A   Scattered Clouds
6:17 PM 78.1 °F - 75.0 °F 90% 29.76 in 4.0 mi SW 4.6 mph - 0.02 in Rain , Thunderstorm Light Rain
6:28 PM 70.0 °F - 66.0 °F 87% 29.80 in 7.0 mi WNW 28.8 mph 43.7 mph 0.02 in Rain , Thunderstorm Light Thunderstorms and Rain
6:37 PM 68.0 °F - 66.0 °F 93% 29.86 in 1.5 mi West 18.4 mph 42.6 mph 0.07 in Rain , Thunderstorm Heavy Thunderstorms and Rain
6:46 PM 68.0 °F - 66.9 °F 96% 29.87 in 1.8 mi WSW 15.0 mph 28.8 mph 0.31 in Rain , Thunderstorm Heavy Thunderstorms and Rain
6:49 PM 66.2 °F - 66.2 °F 100% 29.87 in 2.5 mi WSW 16.1 mph 28.8 mph 0.35 in Rain , Thunderstorm Heavy Thunderstorms and Rain
6:53 PM 66.9 °F - 66.9 °F 100% 29.84 in 2.5 mi West 11.5 mph 25.3 mph 0.38 in Rain , Thunderstorm Heavy Thunderstorms and Rain
6:59 PM 66.9 °F - 66.0 °F 97% 29.83 in 3.0 mi NW 12.7 mph - 0.04 in Rain , Thunderstorm Heavy Rain
7:06 PM 66.9 °F - 66.0 °F 97% 29.84 in 7.0 mi NW 13.8 mph - 0.05 in Rain , Thunderstorm Light Rain
7:16 PM 66.9 °F - 66.0 °F 97% 29.84 in 9.0 mi WNW 9.2 mph 18.4 mph 0.05 in Rain Light Rain
7:53 PM 66.9 °F - 66.0 °F 97% 29.80 in 10.0 mi NW 9.2 mph - 0.08 in Rain Light Rain
8:53 PM 66.9 °F - 66.9 °F 100% 29.83 in 10.0 mi SE 4.6 mph - 0.00 in   Scattered Clouds
9:53 PM 66.9 °F - 66.9 °F 100% 29.86 in 10.0 mi SSE 6.9 mph - N/A   Mostly Cloudy
10:53 PM 68.0 °F - 66.9 °F 96% 29.82 in 10.0 mi Calm Calm - 0.00 in   Clear
11:17 PM 68.0 °F - 66.9 °F 96% 29.82 in 10.0 mi SSE 9.2 mph - N/A   Partly Cloudy
11:50 PM 66.2 °F - 66.2 °F 100% 29.81 in 10.0 mi SSE 10.4 mph - N/A   Mostly Cloudy
11:53 PM 66.9 °F - 66.9 °F 100% 29.80 in 10.0 mi SSE 8.1 mph - N/A   Overcast